STARLINK-2755, 48479

Orbit data source: Space-Track

STARLINK-2755, 48479 is a payload satellite owned by SpaceX/Seattle (US) in LEO that was launched on Sun, 09 May 2021 UTC via an FALCON 9 launch vehicle from the Air Force Eastern Test Range (AFETR). Payload-class satellites include a variety of spacecraft equipped with specific instruments for various scientific and technological missions. These include communications satellites like Starlink; space stations such as the ISS; scientific satellites like the Hubble; Earth observation satellites from companies like Planet Labs, Umbra, and HawkEye 360; GPS; miniature CubeSats for education and research; and military/defense satellites.

Loading next visibility...
Identifier
48479, 2021-040BD
Orbit
LEO
Country
Flag of USUS
Related business
Manufacturer
SpaceX/Seattle
Mission
Operational Commercial Communications
Bus & Motor
STARLINK, Unknown motor
Mass
260 kg wet, ~248 kg dry
Launch date (UTC)
2021-05-09 (5 years ago)
Launch vehicle
FALCON 9
Launch site
Air Force Eastern Test Range (AFETR)
Object type
Payload
Rocket body
Debris
Shape & HBR
Box + 1 Pan, 10.1 m
Radar Cross Section
13.562 m², Large (>1 m²)

Expand to show TLE details & history
Last TLE update: 2 days ago

TLE from 2 days ago
0 STARLINK-2755
1 48479U 21040BD  26171.44462235  .00014969  00000-0  49296-3 0  9998
2 48479  53.1606  73.3536 0001023  89.6597 270.4522 15.31712886282233
Epoch: 2026-06-20T10:40Z
TLE epoch observation values (Epoch: 2026-06-20T10:40:15.371Z)
Latitude
0.00003°
Longitude
4.63042°
Altitude
471.596 km
Speed
7.631 km/s
True Right ascension
04h 53m 24s
True Declination
0° 00' 00"
Sunlit
Object was in daylight at epoch
Visualization orbit readout
Latitude
Unknown
Longitude
Unknown
Altitude
Unknown
Speed
Unknown
Apparent Right ascension
Unknown
Apparent Declination
Unknown
Sunlit
N/A
Visualization observer readout
Local Sidereal Time
00:29:41
Azimuth
Unknown
Elevation
Unknown
Doppler factor
Unknown
Orbital elements
Apogee altitude
471.659 km
Perigee altitude
470.257 km
Semi-major axis
6,849.095 km
Eccentricity
0.0001
Inclination
53.1606°
RAAN
73.3536°
Arg. of periapsis
89.6597°
True anomaly
270.44048°
Mean anomaly
270.4522°
Eccentric anomaly
270.44634°
Mean motion
3.82907 °/min
Orbital period
94.02 mins
BSTAR
0.00049296
Loading maneuver chart data...
Computing Atmospheric mass density...

Documentation

Showing up to 5 results
|